Time,TemperatureF,DewpointF,PressureIn,WindDirection,WindDirectionDegrees,WindSpeedMPH,WindSpeedGustMPH,Humidity,HourlyPrecipIn,Conditions,Clouds,dailyrainin,SoftwareType,DateUTC
2013-11-25 00:01:00,72.5,64.0,30.14,SE,131,8.0,13.0,75,0.00,,,0.00,meteohub,2013-11-25 05:01:00,
2013-11-25 00:02:00,72.5,64.0,30.15,North,9,5.0,13.0,75,0.00,,,0.00,meteohub,2013-11-25 05:02:00,
2013-11-25 00:07:00,72.3,63.1,30.14,East,89,5.0,13.0,73,0.00,,,0.00,meteohub,2013-11-25 05:07:00,
2013-11-25 00:12:00,72.1,63.3,30.14,NE,49,2.0,13.0,74,0.00,,,0.00,meteohub,2013-11-25 05:12:00,
2013-11-25 00:17:00,72.1,63.9,30.14,ESE,118,4.0,12.0,75,0.00,,,0.00,meteohub,2013-11-25 05:17:00,
2013-11-25 00:22:00,72.1,63.3,30.14,NE,51,3.0,12.0,74,0.00,,,0.00,meteohub,2013-11-25 05:22:00,
2013-11-25 00:27:00,72.1,64.2,30.14,NNE,28,2.0,12.0,76,0.00,,,0.00,meteohub,2013-11-25 05:27:00,
2013-11-25 00:32:00,72.0,64.8,30.14,ENE,68,3.0,16.0,78,0.00,,,0.00,meteohub,2013-11-25 05:32:00,
2013-11-25 00:37:00,71.6,64.8,30.14,ENE,71,3.0,16.0,79,0.00,,,0.00,meteohub,2013-11-25 05:37:00,
2013-11-25 00:42:00,71.2,64.0,30.14,SE,125,4.0,16.0,78,0.00,,,0.00,meteohub,2013-11-25 05:42:00,
2013-11-25 00:47:00,71.2,64.4,30.14,NE,51,5.0,12.0,79,0.00,,,0.00,meteohub,2013-11-25 05:47:00,
2013-11-25 00:52:00,71.2,64.0,30.14,NNE,19,6.0,15.0,78,0.00,,,0.00,meteohub,2013-11-25 05:52:00,
2013-11-25 00:57:00,71.2,64.8,30.14,NNE,31,4.0,15.0,80,0.00,,,0.00,meteohub,2013-11-25 05:57:00,
2013-11-25 01:02:00,71.2,63.3,30.14,ENE,76,1.0,15.0,76,0.00,,,0.00,meteohub,2013-11-25 06:02:00,
2013-11-25 01:07:00,71.2,63.3,30.14,ENE,74,8.0,14.0,76,0.00,,,0.00,meteohub,2013-11-25 06:07:00,
2013-11-25 01:12:00,71.2,63.3,30.14,NE,41,4.0,14.0,76,0.00,,,0.00,meteohub,2013-11-25 06:12:00,
2013-11-25 01:17:00,71.2,63.0,30.14,ENE,61,8.0,13.0,75,0.00,,,0.00,meteohub,2013-11-25 06:17:00,
2013-11-25 01:22:00,71.4,63.5,30.14,NNE,21,2.0,13.0,76,0.00,,,0.00,meteohub,2013-11-25 06:22:00,
2013-11-25 01:27:00,71.4,63.5,30.14,NE,38,1.0,13.0,76,0.00,,,0.00,meteohub,2013-11-25 06:27:00,
2013-11-25 01:32:00,71.6,63.7,30.14,South,186,2.0,13.0,76,0.00,,,0.00,meteohub,2013-11-25 06:32:00,
2013-11-25 01:37:00,71.6,63.3,30.14,NW,313,3.0,13.0,75,0.00,,,0.00,meteohub,2013-11-25 06:37:00,
2013-11-25 01:42:00,71.6,63.3,30.14,WNW,297,3.0,14.0,75,0.00,,,0.00,meteohub,2013-11-25 06:42:00,
2013-11-25 01:47:00,71.4,62.8,30.14,SE,124,8.0,14.0,74,0.00,,,0.00,meteohub,2013-11-25 06:47:00,
2013-11-25 01:52:00,71.4,62.8,30.14,NE,52,3.0,14.0,74,0.00,,,0.00,meteohub,2013-11-25 06:52:00,
2013-11-25 01:57:00,71.6,63.0,30.13,ESE,111,2.0,13.0,74,0.00,,,0.00,meteohub,2013-11-25 06:57:00,
2013-11-25 02:02:00,71.8,62.6,30.13,East,79,1.0,13.0,73,0.00,,,0.00,meteohub,2013-11-25 07:02:00,
2013-11-25 02:07:00,71.8,62.6,30.13,SE,129,3.0,11.0,73,0.00,,,0.00,meteohub,2013-11-25 07:07:00,
2013-11-25 02:20:00,71.8,62.6,30.13,NE,41,3.0,13.0,73,0.00,,,0.00,meteohub,2013-11-25 07:20:00,
2013-11-25 02:25:00,71.8,61.9,30.13,East,85,1.0,13.0,71,0.00,,,0.00,meteohub,2013-11-25 07:25:00,
2013-11-25 02:30:00,71.8,62.2,30.13,NE,46,3.0,16.0,72,0.00,,,0.00,meteohub,2013-11-25 07:30:00,
2013-11-25 02:35:00,71.8,62.6,30.13,NE,44,4.0,16.0,73,0.00,,,0.00,meteohub,2013-11-25 07:35:00,
2013-11-25 02:40:00,71.8,63.0,30.13,NNE,24,3.0,16.0,74,0.00,,,0.00,meteohub,2013-11-25 07:40:00,
2013-11-25 02:45:00,71.8,63.0,30.14,SE,131,3.0,12.0,74,0.00,,,0.00,meteohub,2013-11-25 07:45:00,
2013-11-25 02:50:00,71.8,63.0,30.13,NNE,28,5.0,12.0,74,0.00,,,0.00,meteohub,2013-11-25 07:50:00,
2013-11-25 02:55:00,71.6,62.4,30.13,East,86,2.0,16.0,73,0.00,,,0.00,meteohub,2013-11-25 07:55:00,
2013-11-25 03:00:00,71.6,63.0,30.13,NE,51,0.0,16.0,74,0.00,,,0.00,meteohub,2013-11-25 08:00:00,
2013-11-25 03:05:00,71.6,63.0,30.14,East,92,1.0,16.0,74,0.00,,,0.00,meteohub,2013-11-25 08:05:00,
2013-11-25 03:10:00,71.6,63.0,30.13,ESE,103,2.0,14.0,74,0.00,,,0.00,meteohub,2013-11-25 08:10:00,
2013-11-25 03:15:00,71.4,62.2,30.13,NE,51,0.0,14.0,73,0.00,,,0.00,meteohub,2013-11-25 08:15:00,
2013-11-25 03:20:00,71.4,62.8,30.13,NNE,28,2.0,14.0,74,0.00,,,0.00,meteohub,2013-11-25 08:20:00,
2013-11-25 03:25:00,71.4,62.2,30.13,NE,55,2.0,13.0,73,0.00,,,0.00,meteohub,2013-11-25 08:25:00,
2013-11-25 03:31:00,71.4,62.2,30.13,NE,51,3.0,14.0,73,0.00,,,0.00,meteohub,2013-11-25 08:31:00,
2013-11-25 03:36:00,71.4,62.2,30.13,ENE,59,2.0,14.0,73,0.00,,,0.00,meteohub,2013-11-25 08:36:00,
2013-11-25 03:41:00,71.2,61.7,30.13,ENE,58,7.0,14.0,72,0.00,,,0.00,meteohub,2013-11-25 08:41:00,
2013-11-25 03:46:00,71.2,61.3,30.14,NNE,22,4.0,12.0,71,0.00,,,0.00,meteohub,2013-11-25 08:46:00,
2013-11-25 03:51:00,71.2,61.3,30.14,SE,127,2.0,11.0,71,0.00,,,0.00,meteohub,2013-11-25 08:51:00,
2013-11-25 03:56:00,71.2,61.7,30.13,East,96,5.0,11.0,72,0.00,,,0.00,meteohub,2013-11-25 08:56:00,
2013-11-25 04:01:00,71.1,61.5,30.13,NE,48,6.0,9.0,72,0.00,,,0.00,meteohub,2013-11-25 09:01:00,
2013-11-25 04:06:00,71.1,61.2,30.14,East,91,1.0,12.0,71,0.00,,,0.00,meteohub,2013-11-25 09:06:00,
2013-11-25 04:11:00,71.1,61.5,30.14,ENE,67,2.0,12.0,72,0.00,,,0.00,meteohub,2013-11-25 09:11:00,
2013-11-25 04:16:00,71.1,60.8,30.13,North,355,4.0,13.0,70,0.00,,,0.00,meteohub,2013-11-25 09:16:00,
2013-11-25 04:21:00,71.1,61.2,30.13,NE,38,0.0,15.0,71,0.00,,,0.00,meteohub,2013-11-25 09:21:00,
2013-11-25 04:26:00,71.1,60.8,30.14,NE,40,6.0,15.0,70,0.00,,,0.00,meteohub,2013-11-25 09:26:00,
2013-11-25 04:31:00,71.1,61.2,30.13,NNE,22,8.0,15.0,71,0.00,,,0.00,meteohub,2013-11-25 09:31:00,
2013-11-25 04:36:00,71.1,61.2,30.14,NNE,25,0.0,13.0,71,0.00,,,0.00,meteohub,2013-11-25 09:36:00,
2013-11-25 04:41:00,71.1,60.8,30.14,NE,45,3.0,14.0,70,0.00,,,0.00,meteohub,2013-11-25 09:41:00,
2013-11-25 04:46:00,71.1,61.2,30.14,ENE,74,3.0,14.0,71,0.00,,,0.00,meteohub,2013-11-25 09:46:00,
2013-11-25 04:51:00,71.2,61.3,30.14,ENE,66,0.0,14.0,71,0.00,,,0.00,meteohub,2013-11-25 09:51:00,
2013-11-25 04:56:00,71.2,61.7,30.14,NE,35,1.0,11.0,72,0.00,,,0.00,meteohub,2013-11-25 09:56:00,
2013-11-25 05:01:00,71.4,60.8,30.14,East,90,3.0,11.0,69,0.00,,,0.00,meteohub,2013-11-25 10:01:00,
2013-11-25 05:06:00,71.4,60.8,30.14,NE,49,3.0,11.0,69,0.00,,,0.00,meteohub,2013-11-25 10:06:00,
2013-11-25 05:11:00,71.4,61.2,30.14,East,92,5.0,10.0,70,0.00,,,0.00,meteohub,2013-11-25 10:11:00,
2013-11-25 05:16:00,71.4,60.3,30.13,East,92,6.0,11.0,68,0.00,,,0.00,meteohub,2013-11-25 10:16:00,
2013-11-25 05:21:00,71.4,59.9,30.13,East,95,7.0,11.0,67,0.00,,,0.00,meteohub,2013-11-25 10:21:00,
2013-11-25 05:26:00,71.4,60.3,30.13,SE,126,1.0,11.0,68,0.00,,,0.00,meteohub,2013-11-25 10:26:00,
2013-11-25 05:31:00,71.4,59.9,30.13,NE,52,3.0,11.0,67,0.00,,,0.00,meteohub,2013-11-25 10:31:00,
2013-11-25 05:36:00,71.4,59.9,30.13,NE,45,8.0,11.0,67,0.00,,,0.00,meteohub,2013-11-25 10:36:00,
2013-11-25 05:41:00,71.4,59.9,30.13,NW,313,4.0,11.0,67,0.00,,,0.00,meteohub,2013-11-25 10:41:00,
2013-11-25 05:46:00,71.4,59.5,30.14,NE,35,1.0,10.0,66,0.00,,,0.00,meteohub,2013-11-25 10:46:00,
2013-11-25 05:51:00,71.4,59.9,30.14,East,87,6.0,10.0,67,0.00,,,0.00,meteohub,2013-11-25 10:51:00,
2013-11-25 05:56:00,71.4,60.3,30.14,ENE,74,4.0,11.0,68,0.00,,,0.00,meteohub,2013-11-25 10:56:00,
2013-11-25 06:01:00,71.4,60.3,30.14,NNE,21,4.0,11.0,68,0.00,,,0.00,meteohub,2013-11-25 11:01:00,
2013-11-25 06:06:00,71.6,60.8,30.14,NE,50,0.0,11.0,69,0.00,,,0.00,meteohub,2013-11-25 11:06:00,
2013-11-25 06:11:00,71.4,60.3,30.14,North,5,3.0,11.0,68,0.00,,,0.00,meteohub,2013-11-25 11:11:00,
2013-11-25 06:16:00,71.6,60.4,30.14,SE,131,3.0,13.0,68,0.00,,,0.00,meteohub,2013-11-25 11:16:00,
2013-11-25 06:21:00,71.4,60.8,30.14,NE,44,2.0,13.0,69,0.00,,,0.00,meteohub,2013-11-25 11:21:00,
2013-11-25 06:26:00,71.4,59.9,30.14,ENE,78,8.0,13.0,67,0.00,,,0.00,meteohub,2013-11-25 11:26:00,
2013-11-25 06:31:00,71.4,60.8,30.14,East,84,8.0,10.0,69,0.00,,,0.00,meteohub,2013-11-25 11:31:00,
2013-11-25 06:36:00,71.2,60.6,30.14,East,92,2.0,10.0,69,0.00,,,0.00,meteohub,2013-11-25 11:36:00,
2013-11-25 06:41:00,71.2,60.1,30.14,ESE,103,13.0,13.0,68,0.00,,,0.00,meteohub,2013-11-25 11:41:00,
2013-11-25 06:46:00,71.4,61.2,30.14,ENE,76,1.0,13.0,70,0.00,,,0.00,meteohub,2013-11-25 11:46:00,
2013-11-25 06:51:00,71.4,61.2,30.14,SE,124,4.0,13.0,70,0.00,,,0.00,meteohub,2013-11-25 11:51:00,
2013-11-25 06:56:00,71.4,61.2,30.14,NE,39,1.0,13.0,70,0.00,,,0.00,meteohub,2013-11-25 11:56:00,
2013-11-25 07:01:00,71.4,61.5,30.15,North,0,4.0,10.0,71,0.00,,,0.00,meteohub,2013-11-25 12:01:00,
2013-11-25 07:06:00,71.4,61.5,30.15,East,86,0.0,10.0,71,0.00,,,0.00,meteohub,2013-11-25 12:06:00,
2013-11-25 07:11:00,71.4,61.2,30.15,ENE,71,0.0,10.0,70,0.00,,,0.00,meteohub,2013-11-25 12:11:00,
2013-11-25 07:16:00,71.4,61.2,30.15,East,90,5.0,11.0,70,0.00,,,0.00,meteohub,2013-11-25 12:16:00,
2013-11-25 07:21:00,71.4,61.5,30.16,East,99,6.0,11.0,71,0.00,,,0.00,meteohub,2013-11-25 12:21:00,
2013-11-25 07:26:00,71.6,61.7,30.16,NE,42,0.0,13.0,71,0.00,,,0.00,meteohub,2013-11-25 12:26:00,
2013-11-25 07:32:00,71.6,61.7,30.16,ESE,107,0.0,14.0,71,0.00,,,0.00,meteohub,2013-11-25 12:32:00,
2013-11-25 07:37:00,71.8,61.9,30.16,ESE,105,3.0,14.0,71,0.00,,,0.00,meteohub,2013-11-25 12:37:00,
2013-11-25 07:42:00,71.8,61.5,30.17,South,188,2.0,14.0,70,0.00,,,0.00,meteohub,2013-11-25 12:42:00,
2013-11-25 07:47:00,71.8,61.9,30.17,East,86,13.0,13.0,71,0.00,,,0.00,meteohub,2013-11-25 12:47:00,
2013-11-25 07:52:00,72.1,61.9,30.17,East,82,1.0,13.0,70,0.00,,,0.00,meteohub,2013-11-25 12:52:00,
2013-11-25 07:57:00,72.3,61.5,30.17,East,80,2.0,13.0,69,0.00,,,0.00,meteohub,2013-11-25 12:57:00,
2013-11-25 08:02:00,72.3,61.5,30.17,East,94,9.0,13.0,69,0.00,,,0.00,meteohub,2013-11-25 13:02:00,
2013-11-25 08:07:00,72.3,61.2,30.17,SE,127,3.0,14.0,68,0.00,,,0.00,meteohub,2013-11-25 13:07:00,
2013-11-25 08:12:00,72.1,61.9,30.17,East,95,3.0,14.0,70,0.00,,,0.00,meteohub,2013-11-25 13:12:00,
2013-11-25 08:17:00,72.1,61.3,30.17,SE,138,2.0,14.0,69,0.00,,,0.00,meteohub,2013-11-25 13:17:00,
2013-11-25 08:22:00,72.3,62.1,30.17,ESE,116,3.0,11.0,70,0.00,,,0.00,meteohub,2013-11-25 13:22:00,
2013-11-25 08:27:00,72.7,62.8,30.17,ESE,117,3.0,11.0,71,0.00,,,0.00,meteohub,2013-11-25 13:27:00,
2013-11-25 08:32:00,72.5,62.2,30.17,East,85,0.0,12.0,70,0.00,,,0.00,meteohub,2013-11-25 13:32:00,
2013-11-25 08:37:00,72.9,63.0,30.17,ESE,114,2.0,12.0,71,0.00,,,0.00,meteohub,2013-11-25 13:37:00,
2013-11-25 08:42:00,73.0,63.5,30.18,NNE,15,3.0,12.0,72,0.00,,,0.00,meteohub,2013-11-25 13:42:00,
2013-11-25 08:47:00,72.9,63.0,30.18,SE,127,2.0,11.0,71,0.00,,,0.00,meteohub,2013-11-25 13:47:00,
2013-11-25 08:52:00,72.5,64.0,30.18,ENE,58,4.0,11.0,75,0.00,,,0.00,meteohub,2013-11-25 13:52:00,
2013-11-25 08:57:00,72.3,63.9,30.18,NE,44,2.0,11.0,75,0.00,,,0.00,meteohub,2013-11-25 13:57:00,
2013-11-25 09:02:00,72.1,63.9,30.19,North,0,5.0,10.0,75,0.00,,,0.00,meteohub,2013-11-25 14:02:00,
2013-11-25 09:07:00,72.3,63.9,30.19,East,93,2.0,11.0,75,0.00,,,0.00,meteohub,2013-11-25 14:07:00,
2013-11-25 09:12:00,72.3,63.9,30.19,ENE,76,1.0,12.0,75,0.00,,,0.00,meteohub,2013-11-25 14:12:00,
2013-11-25 09:17:00,72.3,63.9,30.19,SE,130,9.0,12.0,75,0.00,,,0.00,meteohub,2013-11-25 14:17:00,
2013-11-25 09:22:00,72.9,64.4,30.19,NE,49,7.0,13.0,75,0.00,,,0.00,meteohub,2013-11-25 14:22:00,
2013-11-25 09:27:00,73.2,64.8,30.20,NE,38,2.0,13.0,75,0.00,,,0.00,meteohub,2013-11-25 14:27:00,
2013-11-25 09:32:00,73.2,64.0,30.19,East,98,1.0,13.0,73,0.00,,,0.00,meteohub,2013-11-25 14:32:00,
2013-11-25 09:37:00,73.8,64.6,30.20,NNE,30,6.0,12.0,73,0.00,,,0.00,meteohub,2013-11-25 14:37:00,
2013-11-25 09:42:00,74.1,64.6,30.20,East,101,3.0,12.0,72,0.00,,,0.00,meteohub,2013-11-25 14:42:00,
2013-11-25 09:47:00,73.9,63.9,30.20,East,93,0.0,16.0,71,0.00,,,0.00,meteohub,2013-11-25 14:47:00,
2013-11-25 09:52:00,73.8,64.2,30.20,NNE,19,3.0,16.0,72,0.00,,,0.00,meteohub,2013-11-25 14:52:00,
2013-11-25 09:57:00,73.6,64.4,30.20,ESE,109,0.0,16.0,73,0.00,,,0.00,meteohub,2013-11-25 14:57:00,
2013-11-25 10:02:00,73.4,63.9,30.20,NE,51,8.0,14.0,72,0.00,,,0.00,meteohub,2013-11-25 15:02:00,
2013-11-25 10:07:00,73.0,63.9,30.20,NE,44,4.0,12.0,73,0.00,,,0.00,meteohub,2013-11-25 15:07:00,
2013-11-25 10:12:00,73.2,64.0,30.20,ENE,71,8.0,14.0,73,0.00,,,0.00,meteohub,2013-11-25 15:12:00,
2013-11-25 10:17:00,73.0,63.9,30.21,NNW,345,1.0,14.0,73,0.00,,,0.00,meteohub,2013-11-25 15:17:00,
2013-11-25 10:22:00,73.0,63.9,30.21,ENE,69,3.0,14.0,73,0.00,,,0.00,meteohub,2013-11-25 15:22:00,
2013-11-25 10:27:00,72.9,63.7,30.20,East,97,2.0,10.0,73,0.00,,,0.00,meteohub,2013-11-25 15:27:00,
2013-11-25 10:32:00,72.9,63.7,30.20,SSE,162,2.0,10.0,73,0.00,,,0.00,meteohub,2013-11-25 15:32:00,
2013-11-25 10:37:00,73.0,64.2,30.21,ESE,116,2.0,10.0,74,0.00,,,0.00,meteohub,2013-11-25 15:37:00,
2013-11-25 10:42:00,72.9,64.0,30.21,NE,49,0.0,10.0,74,0.00,,,0.00,meteohub,2013-11-25 15:42:00,
2013-11-25 10:47:00,72.7,63.9,30.21,ENE,72,7.0,10.0,74,0.00,,,0.00,meteohub,2013-11-25 15:47:00,
2013-11-25 10:52:00,72.7,63.9,30.20,East,91,2.0,10.0,74,0.00,,,0.00,meteohub,2013-11-25 15:52:00,
2013-11-25 10:57:00,72.7,64.2,30.20,East,86,2.0,10.0,75,0.00,,,0.00,meteohub,2013-11-25 15:57:00,
2013-11-25 11:02:00,72.7,64.2,30.20,NW,319,2.0,10.0,75,0.00,,,0.00,meteohub,2013-11-25 16:02:00,
2013-11-25 11:07:00,72.7,64.2,30.20,ESE,107,2.0,10.0,75,0.00,,,0.00,meteohub,2013-11-25 16:07:00,
2013-11-25 11:12:00,72.7,64.8,30.20,NE,40,6.0,13.0,76,0.00,,,0.00,meteohub,2013-11-25 16:12:00,
2013-11-25 11:17:00,72.7,64.2,30.20,ENE,59,3.0,13.0,75,0.00,,,0.00,meteohub,2013-11-25 16:17:00,
2013-11-25 11:22:00,72.7,64.8,30.20,North,0,5.0,13.0,76,0.00,,,0.00,meteohub,2013-11-25 16:22:00,
2013-11-25 11:27:00,72.7,64.8,30.20,SSE,152,0.0,10.0,76,0.00,,,0.00,meteohub,2013-11-25 16:27:00,
2013-11-25 11:32:00,72.9,65.3,30.19,North,0,3.0,10.0,77,0.00,,,0.00,meteohub,2013-11-25 16:32:00,
2013-11-25 11:37:00,72.9,64.8,30.19,ENE,59,9.0,10.0,76,0.00,,,0.00,meteohub,2013-11-25 16:37:00,
2013-11-25 11:42:00,73.0,64.9,30.19,NNE,15,1.0,14.0,76,0.00,,,0.00,meteohub,2013-11-25 16:42:00,
2013-11-25 11:47:00,73.0,64.6,30.19,ESE,115,2.0,14.0,75,0.00,,,0.00,meteohub,2013-11-25 16:47:00,
2013-11-25 11:52:00,72.9,64.8,30.19,SE,140,4.0,14.0,76,0.00,,,0.00,meteohub,2013-11-25 16:52:00,
2013-11-25 11:57:00,72.7,65.1,30.19,NNE,28,0.0,12.0,77,0.00,,,0.00,meteohub,2013-11-25 16:57:00,
2013-11-25 12:02:00,72.9,64.8,30.19,ESE,102,3.0,12.0,76,0.00,,,0.00,meteohub,2013-11-25 17:02:00,
2013-11-25 12:07:00,72.9,64.8,30.18,North,355,1.0,12.0,76,0.00,,,0.00,meteohub,2013-11-25 17:07:00,
2013-11-25 12:12:00,73.0,64.6,30.18,NE,43,7.0,13.0,75,0.00,,,0.00,meteohub,2013-11-25 17:12:00,
2013-11-25 12:17:00,73.0,64.9,30.17,ESE,117,2.0,13.0,76,0.00,,,0.00,meteohub,2013-11-25 17:17:00,
2013-11-25 12:22:00,73.2,65.1,30.17,ENE,74,1.0,13.0,76,0.00,,,0.00,meteohub,2013-11-25 17:22:00,
2013-11-25 12:27:00,73.0,65.8,30.17,East,101,5.0,11.0,78,0.00,,,0.00,meteohub,2013-11-25 17:27:00,
2013-11-25 12:32:00,73.0,65.5,30.17,ENE,63,4.0,10.0,77,0.00,,,0.00,meteohub,2013-11-25 17:32:00,
2013-11-25 12:37:00,73.0,65.8,30.17,East,96,2.0,13.0,78,0.00,,,0.00,meteohub,2013-11-25 17:37:00,
2013-11-25 12:42:00,72.9,65.3,30.17,ENE,60,1.0,14.0,77,0.00,,,0.00,meteohub,2013-11-25 17:42:00,
2013-11-25 12:47:00,72.9,65.3,30.16,ESE,119,2.0,14.0,77,0.00,,,0.00,meteohub,2013-11-25 17:47:00,
2013-11-25 12:52:00,72.3,64.8,30.16,SE,128,3.0,14.0,77,0.00,,,0.00,meteohub,2013-11-25 17:52:00,
2013-11-25 12:57:00,72.1,64.9,30.16,NNE,30,0.0,14.0,78,0.00,,,0.00,meteohub,2013-11-25 17:57:00,
2013-11-25 13:02:00,72.1,64.6,30.15,North,9,6.0,14.0,77,0.00,,,0.00,meteohub,2013-11-25 18:02:00,
2013-11-25 13:07:00,72.3,64.8,30.15,East,85,0.0,10.0,77,0.00,,,0.00,meteohub,2013-11-25 18:07:00,
2013-11-25 13:12:00,72.9,64.8,30.15,ENE,73,0.0,10.0,76,0.00,,,0.00,meteohub,2013-11-25 18:12:00,
2013-11-25 13:17:00,73.0,64.6,30.15,East,94,3.0,9.0,75,0.00,,,0.00,meteohub,2013-11-25 18:17:00,
2013-11-25 13:22:00,73.2,64.8,30.14,SE,146,4.0,10.0,75,0.00,,,0.00,meteohub,2013-11-25 18:22:00,
2013-11-25 13:27:00,73.2,64.8,30.14,NNE,26,2.0,10.0,75,0.00,,,0.00,meteohub,2013-11-25 18:27:00,
2013-11-25 13:32:00,73.6,65.1,30.14,East,98,5.0,10.0,75,0.00,,,0.00,meteohub,2013-11-25 18:32:00,
2013-11-25 13:37:00,73.6,65.1,30.14,NE,37,7.0,13.0,75,0.00,,,0.00,meteohub,2013-11-25 18:37:00,
2013-11-25 13:42:00,73.9,65.8,30.13,ENE,70,4.0,13.0,76,0.00,,,0.00,meteohub,2013-11-25 18:42:00,
2013-11-25 13:47:00,73.9,65.5,30.14,ENE,78,2.0,13.0,75,0.00,,,0.00,meteohub,2013-11-25 18:47:00,
2013-11-25 13:52:00,73.8,65.3,30.13,East,86,0.0,13.0,75,0.00,,,0.00,meteohub,2013-11-25 18:52:00,
2013-11-25 13:57:00,73.9,65.5,30.13,ENE,65,5.0,13.0,75,0.00,,,0.00,meteohub,2013-11-25 18:57:00,
2013-11-25 14:02:00,73.9,65.8,30.14,ENE,76,4.0,13.0,76,0.00,,,0.00,meteohub,2013-11-25 19:02:00,
2013-11-25 14:07:00,74.1,65.7,30.13,North,10,1.0,11.0,75,0.00,,,0.00,meteohub,2013-11-25 19:07:00,
2013-11-25 14:11:00,73.9,65.5,30.13,East,87,6.0,10.0,75,0.00,,,0.00,meteohub,2013-11-25 19:11:00,
2013-11-25 14:16:00,73.9,65.5,30.13,South,169,4.0,11.0,75,0.00,,,0.00,meteohub,2013-11-25 19:16:00,
2013-11-25 14:22:00,74.1,65.7,30.13,SE,133,2.0,11.0,75,0.00,,,0.00,meteohub,2013-11-25 19:22:00,
2013-11-25 14:27:00,73.9,65.8,30.13,ESE,112,1.0,11.0,76,0.00,,,0.00,meteohub,2013-11-25 19:27:00,
2013-11-25 14:31:00,73.8,65.3,30.13,NNW,344,1.0,10.0,75,0.00,,,0.00,meteohub,2013-11-25 19:31:00,
2013-11-25 14:37:00,73.8,65.7,30.13,ESE,123,1.0,12.0,76,0.00,,,0.00,meteohub,2013-11-25 19:37:00,
2013-11-25 14:42:00,73.6,65.1,30.12,East,80,7.0,12.0,75,0.00,,,0.00,meteohub,2013-11-25 19:42:00,
2013-11-25 14:47:00,73.6,65.5,30.12,North,349,1.0,12.0,76,0.00,,,0.00,meteohub,2013-11-25 19:47:00,
2013-11-25 14:52:00,73.4,65.7,30.12,SE,125,5.0,11.0,77,0.00,,,0.00,meteohub,2013-11-25 19:52:00,
2013-11-25 14:57:00,73.0,65.5,30.12,ESE,114,4.0,11.0,77,0.00,,,0.00,meteohub,2013-11-25 19:57:00,
2013-11-25 15:02:00,73.0,65.8,30.12,East,86,2.0,13.0,78,0.00,,,0.00,meteohub,2013-11-25 20:02:00,
2013-11-25 15:07:00,73.0,65.8,30.12,ESE,111,5.0,13.0,78,0.00,,,0.00,meteohub,2013-11-25 20:07:00,
2013-11-25 15:12:00,73.2,65.7,30.13,East,87,0.0,13.0,77,0.00,,,0.00,meteohub,2013-11-25 20:12:00,
2013-11-25 15:17:00,73.4,65.7,30.12,ESE,105,3.0,15.0,77,0.00,,,0.00,meteohub,2013-11-25 20:17:00,
2013-11-25 15:22:00,73.4,65.7,30.12,East,84,2.0,15.0,77,0.00,,,0.00,meteohub,2013-11-25 20:22:00,
2013-11-25 15:27:00,73.2,65.7,30.12,East,89,0.0,15.0,77,0.00,,,0.00,meteohub,2013-11-25 20:27:00,
2013-11-25 15:32:00,73.4,66.2,30.12,NE,37,0.0,11.0,78,0.00,,,0.00,meteohub,2013-11-25 20:32:00,
2013-11-25 15:37:00,73.6,66.4,30.12,WNW,289,4.0,11.0,78,0.00,,,0.00,meteohub,2013-11-25 20:37:00,
2013-11-25 15:42:00,73.6,65.8,30.12,ENE,78,4.0,16.0,77,0.00,,,0.00,meteohub,2013-11-25 20:42:00,
2013-11-25 15:47:00,73.6,66.4,30.12,ENE,77,1.0,16.0,78,0.00,,,0.00,meteohub,2013-11-25 20:47:00,
2013-11-25 15:52:00,73.4,65.7,30.12,NNE,29,0.0,16.0,77,0.00,,,0.00,meteohub,2013-11-25 20:52:00,
2013-11-25 15:57:00,73.4,66.2,30.12,NE,54,7.0,11.0,78,0.00,,,0.00,meteohub,2013-11-25 20:57:00,
2013-11-25 16:02:00,73.8,66.4,30.12,NNW,337,3.0,11.0,78,0.00,,,0.00,meteohub,2013-11-25 21:02:00,
2013-11-25 16:07:00,73.8,66.9,30.12,ESE,109,7.0,11.0,79,0.00,,,0.00,meteohub,2013-11-25 21:07:00,
2013-11-25 16:12:00,73.8,66.4,30.12,North,5,1.0,10.0,78,0.00,,,0.00,meteohub,2013-11-25 21:12:00,
2013-11-25 16:17:00,73.6,66.4,30.12,ESE,119,4.0,13.0,78,0.00,,,0.00,meteohub,2013-11-25 21:17:00,
2013-11-25 16:22:00,73.2,66.0,30.12,East,91,1.0,13.0,78,0.00,,,0.00,meteohub,2013-11-25 21:22:00,
2013-11-25 16:27:00,73.0,66.2,30.12,ESE,121,3.0,13.0,79,0.00,,,0.00,meteohub,2013-11-25 21:27:00,
2013-11-25 16:32:00,73.0,66.2,30.12,ENE,76,4.0,11.0,79,0.00,,,0.00,meteohub,2013-11-25 21:32:00,
2013-11-25 16:37:00,72.9,66.0,30.12,East,87,7.0,11.0,79,0.00,,,0.00,meteohub,2013-11-25 21:37:00,
2013-11-25 16:42:00,72.9,66.0,30.12,East,85,3.0,13.0,79,0.00,,,0.00,meteohub,2013-11-25 21:42:00,
2013-11-25 16:47:00,72.7,65.8,30.12,NNE,19,5.0,13.0,79,0.00,,,0.00,meteohub,2013-11-25 21:47:00,
2013-11-25 16:52:00,72.7,66.2,30.12,NE,34,8.0,13.0,80,0.00,,,0.00,meteohub,2013-11-25 21:52:00,
2013-11-25 16:57:00,72.9,66.0,30.12,East,89,0.0,10.0,79,0.00,,,0.00,meteohub,2013-11-25 21:57:00,
2013-11-25 17:02:00,72.9,66.0,30.12,ESE,111,1.0,11.0,79,0.00,,,0.00,meteohub,2013-11-25 22:02:00,
2013-11-25 17:07:00,72.9,66.4,30.12,NE,55,0.0,12.0,80,0.00,,,0.00,meteohub,2013-11-25 22:07:00,
2013-11-25 17:12:00,72.7,65.8,30.12,East,91,3.0,12.0,79,0.00,,,0.00,meteohub,2013-11-25 22:12:00,
2013-11-25 17:17:00,72.7,66.2,30.12,NNE,16,2.0,12.0,80,0.00,,,0.00,meteohub,2013-11-25 22:17:00,
2013-11-25 17:22:00,72.7,66.2,30.12,North,351,2.0,10.0,80,0.00,,,0.00,meteohub,2013-11-25 22:22:00,
2013-11-25 17:27:00,72.7,66.2,30.12,NNE,15,8.0,10.0,80,0.00,,,0.00,meteohub,2013-11-25 22:27:00,
2013-11-25 17:32:00,72.5,66.7,30.12,NE,51,3.0,11.0,82,0.00,,,0.00,meteohub,2013-11-25 22:32:00,
2013-11-25 17:37:00,72.3,66.2,30.12,East,88,6.0,11.0,81,0.00,,,0.00,meteohub,2013-11-25 22:37:00,
2013-11-25 17:42:00,72.3,66.6,30.12,NE,38,0.0,14.0,82,0.00,,,0.00,meteohub,2013-11-25 22:42:00,
2013-11-25 17:47:00,72.5,66.7,30.12,ESE,107,3.0,14.0,82,0.00,,,0.00,meteohub,2013-11-25 22:47:00,
2013-11-25 17:52:00,72.5,66.4,30.11,ESE,123,3.0,14.0,81,0.00,,,0.00,meteohub,2013-11-25 22:52:00,
2013-11-25 17:57:00,72.7,66.6,30.12,SSE,150,4.0,11.0,81,0.00,,,0.00,meteohub,2013-11-25 22:57:00,
2013-11-25 18:02:00,72.7,66.6,30.11,SSE,155,5.0,11.0,81,0.00,,,0.00,meteohub,2013-11-25 23:02:00,
2013-11-25 18:07:00,72.7,66.6,30.11,NE,44,6.0,13.0,81,0.00,,,0.00,meteohub,2013-11-25 23:07:00,
2013-11-25 18:12:00,72.7,66.9,30.12,SSE,160,1.0,13.0,82,0.00,,,0.00,meteohub,2013-11-25 23:12:00,
2013-11-25 18:17:00,72.1,66.7,30.12,East,88,8.0,13.0,83,0.00,,,0.00,meteohub,2013-11-25 23:17:00,
2013-11-25 18:22:00,72.0,66.2,30.12,ESE,123,1.0,13.0,82,0.00,,,0.00,meteohub,2013-11-25 23:22:00,
2013-11-25 18:27:00,72.0,65.8,30.12,East,79,0.0,12.0,81,0.00,,,0.00,meteohub,2013-11-25 23:27:00,
2013-11-25 18:32:00,72.1,66.4,30.12,NNE,27,2.0,12.0,82,0.00,,,0.00,meteohub,2013-11-25 23:32:00,
2013-11-25 18:37:00,72.3,66.2,30.12,SE,134,4.0,12.0,81,0.00,,,0.00,meteohub,2013-11-25 23:37:00,
2013-11-25 18:42:00,72.3,66.6,30.12,ENE,78,1.0,10.0,82,0.00,,,0.00,meteohub,2013-11-25 23:42:00,
2013-11-25 18:47:00,72.5,66.7,30.12,ENE,78,2.0,10.0,82,0.00,,,0.00,meteohub,2013-11-25 23:47:00,
2013-11-25 18:52:00,72.5,66.7,30.12,ESE,119,2.0,10.0,82,0.00,,,0.00,meteohub,2013-11-25 23:52:00,
2013-11-25 18:57:00,72.5,67.1,30.12,North,355,4.0,10.0,83,0.00,,,0.00,meteohub,2013-11-25 23:57:00,
2013-11-25 19:02:00,72.1,67.5,30.12,SE,142,1.0,13.0,85,0.00,,,0.00,meteohub,2013-11-26 00:02:00,
2013-11-25 19:07:00,72.0,66.9,30.11,SSW,213,2.0,13.0,84,0.00,,,0.00,meteohub,2013-11-26 00:07:00,
2013-11-25 19:12:00,71.8,66.7,30.12,ENE,78,1.0,13.0,84,0.00,,,0.00,meteohub,2013-11-26 00:12:00,
2013-11-25 19:17:00,72.0,66.9,30.11,ENE,62,3.0,13.0,84,0.00,,,0.00,meteohub,2013-11-26 00:17:00,
2013-11-25 19:22:00,72.1,66.7,30.12,NE,51,6.0,13.0,83,0.00,,,0.00,meteohub,2013-11-26 00:22:00,
2013-11-25 19:27:00,72.3,66.6,30.11,NE,46,1.0,13.0,82,0.00,,,0.00,meteohub,2013-11-26 00:27:00,
2013-11-25 19:32:00,72.5,67.1,30.12,South,183,0.0,13.0,83,0.00,,,0.00,meteohub,2013-11-26 00:32:00,
2013-11-25 19:37:00,72.7,66.9,30.11,SE,144,3.0,11.0,82,0.00,,,0.00,meteohub,2013-11-26 00:37:00,
2013-11-25 19:42:00,72.7,67.3,30.12,NE,40,6.0,10.0,83,0.00,,,0.00,meteohub,2013-11-26 00:42:00,
2013-11-25 19:47:00,72.7,66.9,30.12,North,355,7.0,11.0,82,0.00,,,0.00,meteohub,2013-11-26 00:47:00,
2013-11-25 19:52:00,72.9,67.1,30.12,ENE,61,5.0,11.0,82,0.00,,,0.00,meteohub,2013-11-26 00:52:00,
2013-11-25 19:57:00,72.9,67.1,30.12,NNW,344,7.0,11.0,82,0.00,,,0.00,meteohub,2013-11-26 00:57:00,
2013-11-25 20:02:00,72.5,67.1,30.13,ESE,115,5.0,13.0,83,0.00,,,0.00,meteohub,2013-11-26 01:02:00,
2013-11-25 20:07:00,72.7,66.9,30.12,East,101,3.0,13.0,82,0.00,,,0.00,meteohub,2013-11-26 01:07:00,
2013-11-25 20:12:00,72.9,67.1,30.12,SE,144,2.0,13.0,82,0.00,,,0.00,meteohub,2013-11-26 01:12:00,
2013-11-25 20:17:00,72.9,67.1,30.12,ENE,67,2.0,12.0,82,0.00,,,0.00,meteohub,2013-11-26 01:17:00,
2013-11-25 20:22:00,73.0,67.3,30.12,NNE,31,2.0,12.0,82,0.00,,,0.00,meteohub,2013-11-26 01:22:00,
2013-11-25 20:27:00,73.2,67.5,30.12,East,84,1.0,11.0,82,0.00,,,0.00,meteohub,2013-11-26 01:27:00,
2013-11-25 20:32:00,73.2,67.5,30.12,ESE,111,5.0,11.0,82,0.00,,,0.00,meteohub,2013-11-26 01:32:00,
2013-11-25 20:37:00,73.2,67.5,30.12,SE,130,4.0,11.0,82,0.00,,,0.00,meteohub,2013-11-26 01:37:00,
2013-11-25 20:42:00,73.2,67.5,30.12,SE,127,2.0,14.0,82,0.00,,,0.00,meteohub,2013-11-26 01:42:00,
2013-11-25 20:47:00,73.0,67.3,30.12,ENE,70,3.0,14.0,82,0.00,,,0.00,meteohub,2013-11-26 01:47:00,
2013-11-25 20:52:00,73.0,67.3,30.12,ENE,70,2.0,14.0,82,0.00,,,0.00,meteohub,2013-11-26 01:52:00,
2013-11-25 20:57:00,73.0,67.6,30.12,SSW,196,3.0,10.0,83,0.00,,,0.00,meteohub,2013-11-26 01:57:00,
2013-11-25 21:02:00,73.2,67.8,30.12,NNE,23,3.0,10.0,83,0.00,,,0.00,meteohub,2013-11-26 02:02:00,
2013-11-25 21:07:00,73.2,67.5,30.12,ESE,114,0.0,9.0,82,0.00,,,0.00,meteohub,2013-11-26 02:07:00,
2013-11-25 21:12:00,73.4,68.0,30.12,NE,39,4.0,9.0,83,0.00,,,0.00,meteohub,2013-11-26 02:12:00,
2013-11-25 21:17:00,73.4,67.6,30.12,ESE,112,0.0,9.0,82,0.00,,,0.00,meteohub,2013-11-26 02:17:00,
2013-11-25 21:22:00,73.4,68.0,30.12,East,90,5.0,9.0,83,0.00,,,0.00,meteohub,2013-11-26 02:22:00,
2013-11-25 21:27:00,73.4,68.0,30.12,ENE,73,5.0,10.0,83,0.00,,,0.00,meteohub,2013-11-26 02:27:00,
2013-11-25 21:32:00,73.4,68.0,30.12,NNE,29,2.0,10.0,83,0.00,,,0.00,meteohub,2013-11-26 02:32:00,
2013-11-25 21:37:00,73.4,68.0,30.11,NNE,20,3.0,10.0,83,0.00,,,0.00,meteohub,2013-11-26 02:37:00,
2013-11-25 21:42:00,73.4,68.0,30.11,East,94,3.0,10.0,83,0.00,,,0.00,meteohub,2013-11-26 02:42:00,
2013-11-25 21:47:00,73.4,67.6,30.11,East,97,1.0,10.0,82,0.00,,,0.00,meteohub,2013-11-26 02:47:00,
2013-11-25 21:52:00,73.6,67.8,30.11,East,89,5.0,11.0,82,0.00,,,0.00,meteohub,2013-11-26 02:52:00,
2013-11-25 21:57:00,73.6,67.8,30.10,ESE,108,1.0,11.0,82,0.00,,,0.00,meteohub,2013-11-26 02:57:00,
2013-11-25 22:02:00,73.6,68.2,30.10,NNE,30,3.0,13.0,83,0.00,,,0.00,meteohub,2013-11-26 03:02:00,
2013-11-25 22:07:00,73.6,67.8,30.10,ESE,105,2.0,13.0,82,0.00,,,0.00,meteohub,2013-11-26 03:07:00,
2013-11-25 22:12:00,73.6,68.2,30.10,ESE,102,2.0,13.0,83,0.00,,,0.00,meteohub,2013-11-26 03:12:00,
2013-11-25 22:17:00,73.6,68.2,30.10,ENE,75,3.0,12.0,83,0.00,,,0.00,meteohub,2013-11-26 03:17:00,
2013-11-25 22:22:00,73.6,68.2,30.10,SE,140,0.0,12.0,83,0.00,,,0.00,meteohub,2013-11-26 03:22:00,
2013-11-25 22:27:00,73.6,68.2,30.10,NE,51,1.0,12.0,83,0.00,,,0.00,meteohub,2013-11-26 03:27:00,
2013-11-25 22:32:00,73.6,68.2,30.10,NE,37,0.0,8.0,83,0.00,,,0.00,meteohub,2013-11-26 03:32:00,
2013-11-25 22:37:00,73.6,68.2,30.09,ESE,114,3.0,7.0,83,0.00,,,0.00,meteohub,2013-11-26 03:37:00,
2013-11-25 22:42:00,73.8,68.4,30.09,East,86,6.0,7.0,83,0.00,,,0.00,meteohub,2013-11-26 03:42:00,
2013-11-25 22:47:00,73.8,68.4,30.09,East,93,1.0,10.0,83,0.00,,,0.00,meteohub,2013-11-26 03:47:00,
2013-11-25 22:52:00,73.8,68.5,30.09,ESE,120,2.0,10.0,84,0.00,,,0.00,meteohub,2013-11-26 03:52:00,
2013-11-25 22:57:00,73.8,68.5,30.09,ENE,59,4.0,10.0,84,0.00,,,0.00,meteohub,2013-11-26 03:57:00,
2013-11-25 23:02:00,73.8,68.5,30.08,NE,52,2.0,9.0,84,0.00,,,0.00,meteohub,2013-11-26 04:02:00,
2013-11-25 23:07:00,73.9,68.7,30.08,East,88,3.0,10.0,84,0.00,,,0.00,meteohub,2013-11-26 04:07:00,
2013-11-25 23:12:00,73.9,68.4,30.08,ENE,68,2.0,11.0,83,0.00,,,0.00,meteohub,2013-11-26 04:12:00,
2013-11-25 23:17:00,73.9,68.4,30.08,East,99,0.0,11.0,83,0.00,,,0.00,meteohub,2013-11-26 04:17:00,
2013-11-25 23:22:00,73.9,68.7,30.07,ENE,65,5.0,11.0,84,0.00,,,0.00,meteohub,2013-11-26 04:22:00,
2013-11-25 23:27:00,73.9,68.7,30.07,SSE,159,4.0,11.0,84,0.00,,,0.00,meteohub,2013-11-26 04:27:00,
2013-11-25 23:32:00,73.8,68.4,30.07,SE,127,1.0,9.0,83,0.00,,,0.00,meteohub,2013-11-26 04:32:00,
2013-11-25 23:37:00,73.9,68.4,30.06,East,88,0.0,10.0,83,0.00,,,0.00,meteohub,2013-11-26 04:37:00,
2013-11-25 23:42:00,73.9,68.4,30.06,ESE,113,1.0,11.0,83,0.00,,,0.00,meteohub,2013-11-26 04:42:00,
2013-11-25 23:47:00,73.9,68.4,30.06,East,101,2.0,13.0,83,0.00,,,0.00,meteohub,2013-11-26 04:47:00,
2013-11-25 23:52:00,73.9,68.4,30.06,NE,41,7.0,13.0,83,0.00,,,0.00,meteohub,2013-11-26 04:52:00,
2013-11-25 23:57:00,73.9,68.4,30.06,SSE,157,2.0,13.0,83,0.00,,,0.00,meteohub,2013-11-26 04:57:00,